Weather History for Ellington Field, TX

Change the Weather History Date:

Sunday, May 27, 2012

  Actual Average Record
Temperature  
Mean Temperature 83 °F -  
Max Temperature 93 °F 86 °F 93 °F (2011)
Min Temperature 73 °F 68 °F 68 °F (2002)
Cooling Degree Days 18    
Growing Degree Days 33 (Base 50)    
Moisture  
Dew Point 70 °F    
Average Humidity 67    
Maximum Humidity 94    
Minimum Humidity 43    
Precipitation  
Precipitation 0.00 in - - ()
Sea Level Pressure  
Sea Level Pressure 29.97 in    
Wind  
Wind Speed 5 mph (SE)    
Max Wind Speed 12 mph    
Max Gust Speed 18 mph    
Visibility 10 miles    
Events      
Averages and records for this station are not official NWS values.
T = Trace of Precipitation, MM = Missing Value Source: NWS Daily Summary

Daily Weather History Graph

Daily Weather History Graph

Search for Another Location

Airport:

Trip Planner

Search our weather history database for the weather conditions in past years. The results will help you decide how hot, cold, wet, or windy it might be!

Date:

Astronomy

May. 27, 2012 Rise Set
Actual Time 6:22 AM CDT 8:13 PM CDT
Civil Twilight 5:55 AM CDT 8:40 PM CDT
Nautical Twilight 5:23 AM CDT 9:12 PM CDT
Astronomical Twilight 4:49 AM CDT 9:47 PM CDT
Moon 12:12 PM CDT (5/27) 12:35 AM CDT (5/27)
Length of Visible Light 14h 45m
Length of Day
13h 51m
Waxing Crescent, 38% of the Moon is Illuminated
May 27
Waxing Crescent
May 28
First Quarter
Jun 4
Full
Jun 11
Last Quarter
Jun 19
New

Hourly Weather History & Observations

Time (CDT) Temp. Heat Index Dew Point Humidity Pressure Visibility Wind Dir Wind Speed Gust Speed Precip Events Conditions
12:50 AM 77.0 °F - 73.4 °F 89% 30.00 in 10.0 mi SE 4.6 mph - N/A   Partly Cloudy
1:50 AM 77.0 °F - 73.4 °F 89% 29.99 in 10.0 mi Calm Calm - N/A   Partly Cloudy
3:50 AM 75.2 °F - 73.4 °F 94% 29.99 in 10.0 mi Calm Calm - N/A   Partly Cloudy
5:50 AM 73.4 °F - 71.6 °F 94% 30.00 in 10.0 mi Calm Calm - N/A   Partly Cloudy
6:50 AM 75.2 °F - 73.4 °F 94% 30.00 in 10.0 mi Calm Calm - N/A   Partly Cloudy
7:50 AM 80.6 °F 85.4 °F 73.4 °F 79% 30.00 in 10.0 mi ESE 4.6 mph - N/A   Scattered Clouds
8:50 AM 84.2 °F 90.9 °F 73.4 °F 70% 30.02 in 10.0 mi SE 6.9 mph - N/A   Mostly Cloudy
9:50 AM 84.2 °F 90.9 °F 73.4 °F 70% 30.02 in 10.0 mi SSE 9.2 mph - N/A   Mostly Cloudy
10:50 AM 86.0 °F 90.4 °F 69.8 °F 58% 30.01 in 10.0 mi SSE 10.4 mph - N/A   Scattered Clouds
11:50 AM 87.8 °F 92.6 °F 69.8 °F 55% 30.01 in 10.0 mi South 9.2 mph - N/A   Mostly Cloudy
12:50 PM 91.4 °F 95.4 °F 68.0 °F 46% 29.99 in 10.0 mi SE 10.4 mph - N/A   Mostly Cloudy
1:50 PM 91.4 °F 94.0 °F 66.2 °F 43% 29.98 in 10.0 mi SE 9.2 mph - N/A   Mostly Cloudy
2:50 PM 91.4 °F 94.0 °F 66.2 °F 43% 29.96 in 10.0 mi South 11.5 mph - N/A   Mostly Cloudy
3:50 PM 93.2 °F 97.7 °F 68.0 °F 44% 29.95 in 10.0 mi SSE 10.4 mph 18.4 mph N/A   Scattered Clouds
4:50 PM 91.4 °F 94.0 °F 66.2 °F 43% 29.95 in 10.0 mi SE 9.2 mph - N/A   Scattered Clouds
5:50 PM 91.4 °F 95.4 °F 68.0 °F 46% 29.94 in 10.0 mi SE 9.2 mph - N/A   Scattered Clouds
6:50 PM 89.6 °F 93.4 °F 68.0 °F 49% 29.93 in 10.0 mi SE 9.2 mph - N/A   Scattered Clouds
7:50 PM 84.2 °F 88.4 °F 69.8 °F 62% 29.93 in 10.0 mi SE 8.1 mph - N/A   Partly Cloudy
8:50 PM 80.6 °F 83.9 °F 69.8 °F 70% 29.94 in 10.0 mi SE 5.8 mph - N/A   Partly Cloudy
9:50 PM 78.8 °F - 69.8 °F 74% 29.93 in 10.0 mi SE 5.8 mph - N/A   Partly Cloudy
10:50 PM 78.8 °F - 69.8 °F 74% 29.94 in 10.0 mi SE 6.9 mph - N/A   Partly Cloudy
11:50 PM 77.0 °F - 69.8 °F 78% 29.94 in 10.0 mi ESE 4.6 mph - N/A   Partly Cloudy